Terminal Aerodrome Forecast
Issued by NWS Denver/Boulder, CO

Home | Current Version | Previous Version | Text Only | Print | Product List | Glossary On
Versions: 1 2 3 4 5 6 7 8 9 10 11 12 13 14 15 16 17 18 19 20 21 22 23 24 25 26 27 28 29 30 31 32 33 34 35 36 37 38 39 40 41 42 43 44 45 46 47 48 49 50
425
FTUS45 KBOU 091746
TAFDEN
TAF
KDEN 091746Z 0918/1024 26006KT P6SM FEW025 SCT220
     FM091900 12005KT P6SM FEW080 SCT220
     FM100100 21008KT P6SM FEW120 SCT220
     FM101400 23006KT P6SM FEW120 SCT220
     FM101900 03005KT P6SM FEW120 SCT220=

USA.gov is the U.S. government's official web portal to all federal, state and local government web resources and services.